Theta_e
322 322 323 324 324 325 326 326 326 326 327 327 327 327 327 327 326 315 310 318 321 328 324 315 314 313 314 312 312 311 297 296 299 298 298 301 298 301 299 297 299 303 299 299 304
320 320 321 322 322 323 324 325 325 325 326 327 326 326 327 326 317 313 324 328 329 328 316 311 310 311 307 309 308 303 300 300 301 300 298 300 300 300 297 297 298 299 301 301 302
318 318 319 320 321 322 323 323 324 325 325 326 326 326 326 323 313 312 329 329 328 325 316 313 312 310 306 308 306 304 299 302 301 302 302 300 300 301 298 297 300 299 301 299 299
318 318 318 318 319 320 321 322 323 324 324 325 325 325 325 321 301 315 326 325 326 319 313 311 309 306 303 304 307 299 304 304 305 303 301 298 301 299 299 300 302 300 301 299 299
319 318 317 317 318 319 319 320 321 322 323 324 325 325 321 309 309 315 323 323 316 313 310 308 306 306 303 304 304 301 302 304 304 302 300 302 299 299 299 302 304 304 302 300 299
319 318 317 317 317 318 318 319 320 321 322 323 324 324 314 301 313 315 311 312 312 310 308 308 306 307 303 302 300 302 302 301 302 302 302 299 298 299 300 303 303 303 300 299 300
319 318 317 317 317 317 317 318 319 321 321 322 323 322 310 305 313 312 311 310 310 309 307 309 308 306 306 302 303 301 296 299 300 301 299 299 295 296 301 301 300 301 301 301 300
318 317 316 316 317 317 318 318 319 320 321 322 324 318 305 314 312 310 310 308 309 309 309 308 307 306 304 303 301 295 296 291 298 300 298 297 290 299 302 300 300 298 298 300 301
317 316 316 316 316 317 318 318 318 321 321 322 317 314 303 314 310 310 309 307 307 308 307 307 308 303 301 295 293 295 290 292 296 300 297 295 292 298 298 297 297 297 298 299 300
316 315 315 316 316 317 317 318 320 318 319 320 313 306 306 305 309 309 307 308 306 305 304 303 301 297 296 293 287 289 290 293 292 296 296 293 293 297 298 298 297 299 300 300 300
316 316 316 316 317 318 315 312 307 309 309 304 305 305 305 308 310 306 306 305 305 302 296 300 293 291 294 297 297 295 293 292 296 298 294 293 294 296 298 298 298 299 300 300 299
317 316 317 317 317 318 314 306 306 305 296 303 304 305 307 309 303 305 305 299 299 294 297 295 291 297 298 297 295 293 291 291 295 297 293 292 293 296 297 298 299 299 299 300 297
317 317 316 317 317 315 310 307 311 311 298 299 302 302 302 305 300 301 301 300 297 295 295 292 295 299 297 294 293 292 290 290 291 293 292 289 288 291 295 298 298 299 300 298 297
318 317 316 316 312 312 307 309 311 310 291 295 298 301 302 302 295 301 302 300 297 294 295 294 298 296 294 293 294 289 294 293 292 288 284 290 284 289 291 293 295 296 298 296 296
317 317 317 316 310 308 308 309 311 305 281 297 295 304 302 297 296 296 298 296 293 293 293 292 292 291 291 293 295 291 292 290 290 287 286 286 283 287 292 290 292 295 298 298 297
317 316 316 314 313 312 312 310 307 289 280 293 296 295 295 296 295 295 295 296 295 292 293 292 294 293 293 292 292 292 289 288 286 285 280 285 285 284 288 291 292 294 296 296 296
317 316 314 315 309 311 310 305 289 282 295 293 293 295 294 293 294 292 290 288 287 284 285 290 291 291 293 290 290 289 286 280 278 277 281 287 284 289 291 293 294 294 295 294 296
317 316 314 314 312 310 305 296 284 294 292 296 294 294 291 294 293 292 290 287 290 289 287 285 285 290 292 291 290 287 288 281 274 278 282 282 280 287 294 296 295 296 295 295 294
317 315 312 314 310 309 299 285 290 297 300 297 297 290 290 292 292 292 289 290 292 291 287 286 286 289 291 291 292 287 284 289 282 276 277 284 287 291 293 293 293 292 292 292 293
313 311 309 315 310 305 292 289 294 303 303 299 293 293 289 291 289 289 290 292 292 294 295 289 285 290 287 287 287 286 288 282 282 272 271 282 283 286 291 293 291 291 291 292 293
311 305 310 312 309 298 286 288 295 302 303 298 296 293 291 290 292 290 290 293 293 294 295 290 289 286 286 283 285 283 283 285 285 284 275 277 283 288 290 291 292 291 292 293 294
308 297 307 309 295 294 289 292 297 297 302 298 294 293 291 291 289 291 291 294 296 294 290 293 289 283 287 291 287 288 287 288 282 280 280 283 284 293 292 291 292 292 294 294 295
302 302 306 307 292 290 293 294 296 296 296 297 296 297 297 293 289 291 292 295 296 294 289 291 285 280 282 288 286 284 286 288 288 286 283 280 283 294 295 294 293 292 293 293 294
299 293 296 298 299 295 292 291 291 298 297 298 297 297 294 291 293 290 291 295 297 295 296 294 287 284 281 284 288 284 285 285 286 282 282 283 285 290 292 293 295 295 296 293 293
297 293 296 289 291 294 295 293 291 291 297 298 294 295 293 289 290 290 291 292 294 296 294 292 283 284 287 288 287 286 286 287 285 285 281 285 285 289 292 293 294 296 296 294 293
290 292 292 293 293 293 292 290 290 293 294 293 293 295 294 291 292 290 291 292 291 291 292 292 284 285 282 285 285 283 286 287 286 287 287 287 286 293 294 295 294 295 295 295 295
297 296 290 287 288 288 288 290 290 292 294 295 295 294 292 295 297 298 298 298 297 293 289 286 285 283 280 285 284 280 284 286 287 289 288 284 289 294 293 294 295 296 296 296 296
Wind_Speed
16 16 17 17 18 18 18 18 18 16 14 13 13 11 9 8 7 4 7 2 7 7 0 5 5 6 5 4 3 2 2 6 8 1 1 5 4 6 2 2 3 7 2 3 14
15 16 16 17 17 17 18 18 18 17 16 14 14 13 9 8 5 10 5 11 10 7 3 5 6 6 4 4 3 3 3 5 3 6 4 2 7 5 3 6 6 5 7 7 11
14 15 16 16 17 17 17 18 17 17 17 15 14 13 9 6 5 0 5 11 8 5 4 5 6 5 7 4 5 6 5 4 3 3 5 5 6 6 6 8 10 13 12 14 11
14 15 16 16 17 17 18 17 17 17 18 16 15 12 9 4 5 3 5 7 6 5 4 3 4 3 5 7 8 4 10 11 3 2 1 4 3 6 10 14 1 2 2 15 18
11 13 15 17 17 18 18 18 17 17 17 17 14 11 5 5 6 5 6 5 5 4 4 5 7 7 7 5 1 8 9 9 6 5 5 8 11 8 13 11 13 11 5 12 14
11 12 14 16 18 19 19 19 19 17 16 17 14 8 4 7 4 8 6 3 4 5 5 5 5 5 5 6 6 6 8 11 8 9 7 7 7 5 10 14 15 11 11 12 15
9 10 13 16 19 21 22 22 21 18 17 15 8 3 6 11 4 6 6 2 1 3 5 2 4 3 6 7 8 4 8 10 12 10 7 4 11 16 21 6 9 10 11 12 15
8 10 12 14 17 20 22 23 22 21 17 7 3 4 8 3 5 6 6 4 2 1 2 3 2 3 2 4 5 4 5 5 5 10 7 10 14 10 16 12 16 11 10 10 13
6 9 11 14 16 18 21 26 24 17 6 2 4 4 7 0 3 5 6 4 5 4 2 2 2 3 5 3 6 9 7 9 10 11 8 10 9 10 0 1 8 10 12 13 12
8 8 11 14 17 18 22 26 9 3 3 4 5 1 6 3 4 3 2 5 3 6 4 4 4 4 4 6 8 7 7 11 14 7 7 8 18 13 11 8 13 16 16 15 15
8 9 10 13 15 17 13 7 3 3 5 9 7 5 6 5 1 5 5 5 4 4 7 7 6 13 15 17 17 15 16 17 23 11 10 16 19 16 11 14 14 17 19 16 13
9 9 12 13 14 16 8 4 5 4 10 11 14 9 2 7 4 8 8 9 7 9 7 4 13 21 9 12 7 9 14 22 20 12 8 10 14 12 10 16 21 18 20 20 7
10 9 10 12 14 10 4 4 4 7 7 7 12 8 4 7 8 11 16 7 8 8 13 20 10 14 7 8 10 13 12 16 17 9 6 5 8 13 9 17 16 17 22 12 10
11 9 8 13 5 5 2 6 4 3 5 8 7 4 4 4 5 5 3 4 8 13 13 17 18 20 15 18 11 22 9 10 12 7 7 4 16 9 6 12 11 15 18 11 11
11 9 4 1 6 4 3 4 5 3 9 2 3 3 5 3 2 3 4 1 10 6 5 8 4 6 9 12 10 7 2 2 4 6 6 5 12 6 10 10 12 12 16 12 10
11 9 5 4 4 1 1 4 2 4 11 3 5 4 4 5 1 2 2 3 2 3 8 15 5 3 4 3 2 3 2 3 3 2 11 12 13 4 7 9 6 10 14 12 8
14 12 9 3 1 4 1 2 3 11 3 6 6 7 5 6 7 8 7 7 7 4 8 7 18 2 4 4 2 3 3 5 5 1 18 10 12 15 5 8 11 13 14 10 10
14 14 11 8 7 4 3 2 12 8 18 3 5 8 7 9 8 8 5 6 15 6 3 3 10 15 9 13 8 10 9 8 8 12 23 5 12 9 11 12 10 15 12 9 9
12 3 2 8 7 6 5 5 15 7 7 11 14 6 8 8 7 9 10 9 8 20 12 8 12 4 6 2 9 7 7 4 2 3 4 11 14 10 9 11 10 9 7 8 8
2 3 4 12 12 6 3 12 18 7 12 10 22 8 17 13 11 10 10 6 7 14 13 5 11 8 4 3 3 3 1 3 2 3 9 20 16 17 14 19 6 5 7 7 9
1 3 1 16 6 3 6 13 14 12 15 15 21 19 20 16 16 14 14 12 5 6 18 3 5 6 7 9 11 3 4 5 1 6 6 11 17 5 10 6 9 8 5 7 9
2 5 5 12 5 4 10 9 11 20 13 5 2 10 17 16 17 26 26 21 19 2 10 9 3 6 16 8 2 5 11 13 12 16 5 11 28 8 6 8 9 7 7 8 10
4 2 5 3 8 8 5 17 14 16 17 5 11 13 15 17 10 11 14 12 8 6 5 10 3 2 9 14 1 6 6 12 11 11 18 19 24 12 22 17 9 9 9 9 11
4 4 3 4 4 9 12 11 16 16 21 20 17 11 12 14 18 10 13 15 13 7 16 9 5 8 14 17 15 11 13 12 14 12 20 22 25 33 29 25 26 21 17 10 10
4 6 7 4 7 15 13 7 18 17 20 15 8 25 21 16 19 21 20 29 18 16 5 6 11 18 24 24 25 23 24 23 23 18 21 25 28 27 31 23 26 24 18 13 11
4 3 5 4 6 12 15 19 28 26 23 21 26 23 19 25 27 28 17 18 20 2 12 11 10 14 25 31 32 30 28 26 31 31 33 36 33 36 30 27 33 29 28 19 17
2 2 1 8 10 9 14 14 7 12 15 23 27 27 25 26 24 28 26 25 19 13 10 8 9 9 21 24 28 26 34 37 34 33 30 31 39 39 34 33 34 33 23 24 17
Wind_Direction
18 16 12 9 6 3 1 359 357 354 354 351 349 340 330 324 306 197 246 152 145 137 154 143 210 211 237 232 223 235 271 264 274 41 328 113 216 157 121 244 209 182 3 102 134
13 9 6 2 0 358 355 353 350 348 347 346 344 338 332 332 259 259 162 123 126 145 218 204 203 176 239 212 202 227 236 263 37 338 292 167 199 221 185 223 238 198 122 124 143
6 5 1 357 352 351 349 346 344 342 340 339 339 332 325 319 274 234 47 116 132 166 279 311 304 208 232 228 201 226 231 300 298 315 343 277 276 208 239 251 225 212 200 168 166
357 357 356 352 347 344 342 340 337 336 334 332 334 328 323 241 274 75 102 111 145 219 250 217 243 215 222 220 220 271 242 249 291 119 255 237 258 264 222 230 260 24 355 166 180
343 345 346 345 342 340 336 333 330 328 326 324 329 325 286 226 252 134 127 128 160 170 230 234 247 243 259 294 124 234 261 282 260 192 232 282 260 247 256 248 237 241 173 175 192
334 338 338 337 335 332 330 326 321 318 318 316 319 321 245 245 112 142 132 149 226 215 198 224 268 355 295 260 261 4 309 291 277 228 216 225 262 229 241 233 243 244 204 202 199
326 334 334 332 331 329 326 321 314 308 308 308 300 252 259 246 130 138 171 119 84 285 242 179 321 248 344 269 354 284 303 276 248 220 233 171 278 231 245 255 238 241 234 211 213
329 332 330 326 325 324 321 314 307 305 301 288 239 228 258 358 97 163 152 128 147 97 348 48 242 259 228 353 257 232 238 281 268 200 159 134 261 231 247 219 235 225 245 237 222
320 331 325 320 316 317 316 308 300 292 254 210 187 237 257 178 203 162 195 175 130 122 65 161 248 242 124 214 284 225 249 235 272 179 132 178 256 265 353 5 267 232 233 238 238
304 312 317 312 307 312 318 300 277 304 239 212 269 262 167 193 133 170 50 154 171 143 160 196 209 222 196 195 228 251 246 283 277 199 197 205 251 263 280 255 257 265 259 249 244
291 298 298 297 307 316 334 339 261 216 223 212 185 233 147 85 157 196 191 162 189 221 200 192 180 217 215 215 234 255 264 261 271 263 186 230 246 250 246 272 262 262 267 260 255
268 285 298 310 313 310 295 325 68 318 298 243 252 249 157 170 205 193 166 178 177 212 207 205 220 236 255 259 258 272 275 271 276 292 179 257 259 262 250 257 258 263 267 270 240
255 274 303 314 314 299 325 37 339 333 255 233 221 209 209 161 228 202 168 192 191 210 213 226 206 215 227 241 261 239 244 262 265 281 217 272 259 250 241 249 262 262 258 253 222
250 259 298 316 290 340 50 341 330 308 266 222 195 202 143 181 262 17 226 196 229 221 216 253 238 244 248 256 228 268 240 260 270 268 241 93 288 221 236 266 239 250 264 248 222
240 247 271 38 306 310 11 336 313 252 278 345 116 351 17 205 104 43 4 37 243 204 182 220 174 197 234 235 186 261 64 304 290 270 317 217 275 230 188 243 236 241 254 266 238
231 224 175 222 220 57 12 303 251 242 246 204 127 176 166 188 134 123 204 269 29 288 246 257 123 222 218 78 103 122 316 246 249 227 254 201 219 173 185 210 215 227 248 243 171
218 199 178 219 305 112 141 220 250 229 197 178 202 177 217 180 190 190 173 187 191 171 219 229 234 146 143 150 174 170 148 297 306 263 263 181 241 251 217 183 196 217 236 220 161
230 195 208 211 140 114 48 288 230 210 216 95 181 171 208 179 221 190 219 236 221 234 300 255 274 175 179 213 176 179 176 172 225 258 279 154 253 252 220 228 217 212 231 152 163
257 230 206 191 151 111 114 187 243 264 269 288 292 256 214 214 229 172 215 237 211 187 198 195 249 38 152 192 159 181 197 211 272 66 320 261 277 282 233 248 241 216 156 168 174
181 202 207 167 137 120 138 223 248 254 314 278 264 272 270 231 194 186 205 198 226 191 215 249 261 171 145 58 270 187 305 116 240 231 242 279 287 270 271 262 230 154 219 218 201
215 236 165 139 132 182 199 227 252 253 233 257 269 282 284 284 278 249 238 243 245 223 195 234 225 249 125 200 179 164 237 229 269 187 205 267 273 257 145 154 165 207 208 218 198
198 254 148 147 176 198 222 207 227 257 249 265 186 253 261 290 302 286 284 283 355 159 169 202 165 250 245 231 230 237 215 203 217 239 236 234 262 185 261 133 139 163 193 221 209
244 233 194 180 232 213 278 240 244 264 249 230 234 212 232 252 266 272 285 296 339 45 40 351 283 268 279 296 270 225 230 247 255 254 247 243 253 242 270 268 256 264 283 221 225
289 249 198 232 241 233 228 239 242 241 256 253 258 241 246 250 242 246 244 261 255 183 142 94 270 267 249 254 290 283 253 240 238 254 259 256 272 279 272 275 283 278 277 241 224
234 240 177 197 251 245 234 196 234 244 233 241 224 228 232 247 252 247 245 258 262 268 245 172 214 220 235 245 263 263 260 274 275 260 252 270 269 266 271 277 268 272 277 274 277
278 310 5 306 283 250 239 251 256 260 251 243 236 242 235 234 236 250 223 235 241 301 200 186 224 214 233 239 250 260 265 259 251 254 254 254 259 262 258 267 270 274 270 283 266
294 67 84 262 266 276 253 268 270 276 269 281 283 277 268 257 247 244 251 259 261 230 210 191 200 204 245 233 239 247 241 250 256 249 242 250 249 257 263 256 258 267 286 278 270